TimeEDT,TemperatureF,Dew PointF,Humidity,Sea Level PressureIn,VisibilityMPH,Wind Direction,Wind SpeedMPH,Gust SpeedMPH,PrecipitationIn,Events,Conditions,WindDirDegrees,DateUTC
12:15 AM,37.4,37.4,100,30.24,7.0,Calm,Calm,-,N/A,,Mostly Cloudy,0,2013-10-31 04:15:00
12:35 AM,35.6,35.6,100,30.25,5.0,Calm,Calm,-,N/A,,Overcast,0,2013-10-31 04:35:00
12:55 AM,39.2,37.4,93,30.25,7.0,Calm,Calm,-,N/A,,Overcast,0,2013-10-31 04:55:00
1:15 AM,37.4,37.4,100,30.25,7.0,Calm,Calm,-,N/A,,Overcast,0,2013-10-31 05:15:00
1:35 AM,37.4,35.6,93,30.24,7.0,Calm,Calm,-,N/A,,Overcast,0,2013-10-31 05:35:00
1:55 AM,37.4,35.6,93,30.25,7.0,Calm,Calm,-,N/A,,Mostly Cloudy,0,2013-10-31 05:55:00
2:15 AM,37.4,35.6,93,30.25,6.0,Calm,Calm,-,N/A,,Overcast,0,2013-10-31 06:15:00
2:35 AM,37.4,35.6,93,30.25,6.0,Calm,Calm,-,N/A,,Overcast,0,2013-10-31 06:35:00
2:55 AM,37.4,35.6,93,30.24,7.0,Calm,Calm,-,N/A,,Overcast,0,2013-10-31 06:55:00
3:15 AM,37.4,35.6,93,30.23,7.0,Calm,Calm,-,N/A,,Overcast,0,2013-10-31 07:15:00
3:35 AM,39.2,37.4,93,30.24,6.0,Calm,Calm,-,N/A,,Overcast,0,2013-10-31 07:35:00
3:55 AM,39.2,37.4,93,30.24,5.0,Calm,Calm,-,N/A,,Overcast,0,2013-10-31 07:55:00
4:15 AM,41.0,39.2,93,30.24,7.0,Calm,Calm,-,N/A,,Overcast,0,2013-10-31 08:15:00
4:35 AM,41.0,41.0,100,30.24,7.0,ENE,4.6,-,N/A,,Overcast,60,2013-10-31 08:35:00
4:55 AM,42.8,41.0,93,30.24,7.0,East,3.5,-,N/A,,Overcast,80,2013-10-31 08:55:00
5:15 AM,42.8,41.0,93,30.23,9.0,Calm,Calm,-,N/A,,Overcast,0,2013-10-31 09:15:00
5:35 AM,41.0,41.0,100,30.22,6.0,Calm,Calm,-,N/A,,Partly Cloudy,0,2013-10-31 09:35:00
5:55 AM,41.0,39.2,93,30.22,0.2,Calm,Calm,-,N/A,Fog,Fog,0,2013-10-31 09:55:00
6:15 AM,41.0,39.2,93,30.22,5.0,Calm,Calm,-,N/A,,Overcast,0,2013-10-31 10:15:00
6:35 AM,41.0,41.0,100,30.22,8.0,Calm,Calm,-,N/A,,Overcast,0,2013-10-31 10:35:00
6:55 AM,42.8,42.8,100,30.22,7.0,SE,3.5,-,N/A,,Overcast,130,2013-10-31 10:55:00
7:15 AM,44.6,42.8,93,30.22,6.0,Calm,Calm,-,N/A,,Overcast,0,2013-10-31 11:15:00
7:35 AM,44.6,44.6,100,30.22,4.0,Calm,Calm,-,N/A,,Overcast,0,2013-10-31 11:35:00
7:55 AM,44.6,44.6,100,30.22,4.0,Calm,Calm,-,N/A,,Overcast,0,2013-10-31 11:55:00
8:15 AM,48.2,48.2,100,30.23,3.0,Calm,Calm,-,N/A,,Scattered Clouds,0,2013-10-31 12:15:00
8:35 AM,53.6,51.8,94,30.23,6.0,SSE,4.6,-,N/A,,Partly Cloudy,160,2013-10-31 12:35:00
8:55 AM,53.6,53.6,100,30.23,10.0,South,6.9,-,N/A,,Mostly Cloudy,170,2013-10-31 12:55:00
9:15 AM,55.4,53.6,94,30.23,10.0,South,6.9,-,N/A,,Overcast,180,2013-10-31 13:15:00
9:35 AM,55.4,53.6,94,30.23,10.0,South,8.1,-,N/A,,Overcast,180,2013-10-31 13:35:00
9:55 AM,57.2,53.6,88,30.22,10.0,South,9.2,-,N/A,,Overcast,180,2013-10-31 13:55:00
10:15 AM,57.2,53.6,88,30.21,10.0,South,12.7,-,N/A,,Overcast,180,2013-10-31 14:15:00
10:35 AM,59.0,53.6,82,30.20,10.0,South,10.4,-,N/A,,Overcast,170,2013-10-31 14:35:00
10:55 AM,59.0,51.8,77,30.20,10.0,South,13.8,-,N/A,,Overcast,180,2013-10-31 14:55:00
11:15 AM,59.0,53.6,82,30.19,10.0,South,15.0,20.7,N/A,,Overcast,180,2013-10-31 15:15:00
11:35 AM,60.8,51.8,72,30.19,10.0,South,13.8,18.4,N/A,,Mostly Cloudy,180,2013-10-31 15:35:00
11:55 AM,60.8,50.0,68,30.17,10.0,South,15.0,20.7,N/A,,Overcast,180,2013-10-31 15:55:00
12:15 PM,60.8,50.0,68,30.16,10.0,South,15.0,20.7,N/A,,Mostly Cloudy,190,2013-10-31 16:15:00
12:35 PM,60.8,50.0,68,30.15,10.0,South,12.7,-,N/A,,Overcast,180,2013-10-31 16:35:00
12:55 PM,59.0,51.8,77,30.14,10.0,South,12.7,-,N/A,,Overcast,180,2013-10-31 16:55:00
1:15 PM,59.0,53.6,82,30.13,10.0,South,11.5,-,N/A,,Overcast,170,2013-10-31 17:15:00
1:35 PM,59.0,53.6,82,30.12,10.0,South,11.5,-,N/A,,Overcast,180,2013-10-31 17:35:00
1:55 PM,60.8,53.6,77,30.10,10.0,South,15.0,19.6,N/A,,Overcast,170,2013-10-31 17:55:00
2:15 PM,60.8,53.6,77,30.10,10.0,South,15.0,19.6,N/A,,Overcast,190,2013-10-31 18:15:00
2:35 PM,60.8,55.4,82,30.09,10.0,South,15.0,20.7,N/A,,Overcast,180,2013-10-31 18:35:00
2:55 PM,60.8,55.4,82,30.08,10.0,South,15.0,21.9,N/A,,Overcast,180,2013-10-31 18:55:00
3:15 PM,60.8,55.4,82,30.07,10.0,South,15.0,-,N/A,,Overcast,180,2013-10-31 19:15:00
3:35 PM,60.8,55.4,82,30.06,10.0,South,12.7,-,N/A,,Overcast,180,2013-10-31 19:35:00
3:55 PM,62.6,55.4,77,30.06,10.0,South,15.0,18.4,N/A,,Overcast,190,2013-10-31 19:55:00
4:15 PM,62.6,55.4,77,30.06,10.0,South,16.1,21.9,N/A,,Overcast,190,2013-10-31 20:15:00
4:35 PM,62.6,57.2,82,30.04,10.0,SSW,17.3,26.5,N/A,,Overcast,200,2013-10-31 20:35:00
4:55 PM,62.6,57.2,82,30.04,10.0,SSW,17.3,26.5,N/A,,Overcast,200,2013-10-31 20:55:00
5:15 PM,62.6,57.2,82,30.04,10.0,SSW,15.0,24.2,N/A,,Overcast,200,2013-10-31 21:15:00
5:35 PM,62.6,57.2,82,30.03,10.0,SSW,15.0,23.0,N/A,,Overcast,210,2013-10-31 21:35:00
5:55 PM,62.6,57.2,82,30.03,10.0,SSW,19.6,29.9,N/A,,Overcast,210,2013-10-31 21:55:00
6:15 PM,62.6,57.2,82,30.04,10.0,SSW,17.3,27.6,N/A,,Overcast,210,2013-10-31 22:15:00
6:35 PM,62.6,57.2,82,30.04,4.0,SSW,15.0,24.2,N/A,Rain,Light Rain,210,2013-10-31 22:35:00
6:55 PM,60.8,59.0,94,30.03,6.0,SSW,17.3,21.9,N/A,,Overcast,200,2013-10-31 22:55:00
7:15 PM,62.6,59.0,88,30.02,10.0,SSW,15.0,24.2,N/A,,Overcast,210,2013-10-31 23:15:00
7:35 PM,62.6,57.2,82,30.01,10.0,SSW,15.0,-,N/A,,Overcast,200,2013-10-31 23:35:00
7:55 PM,62.6,57.2,82,30.01,10.0,SSW,15.0,23.0,N/A,,Overcast,210,2013-10-31 23:55:00
8:15 PM,62.6,57.2,82,30.00,10.0,SSW,15.0,24.2,N/A,,Overcast,210,2013-11-01 00:15:00
8:35 PM,62.6,57.2,82,29.99,10.0,SSW,15.0,23.0,N/A,,Overcast,200,2013-11-01 00:35:00
8:55 PM,62.6,57.2,82,29.97,10.0,SSW,18.4,25.3,N/A,,Overcast,200,2013-11-01 00:55:00
9:15 PM,64.4,57.2,77,29.96,10.0,SSW,17.3,24.2,N/A,,Overcast,200,2013-11-01 01:15:00
9:35 PM,64.4,57.2,77,29.96,10.0,SSW,20.7,29.9,N/A,,Overcast,200,2013-11-01 01:35:00
9:55 PM,64.4,57.2,77,29.96,10.0,SSW,13.8,25.3,N/A,,Overcast,200,2013-11-01 01:55:00
10:15 PM,62.6,57.2,82,29.95,10.0,SSW,18.4,24.2,N/A,,Overcast,200,2013-11-01 02:15:00
10:35 PM,64.4,57.2,77,29.94,10.0,SSW,17.3,24.2,N/A,,Overcast,200,2013-11-01 02:35:00
10:55 PM,64.4,59.0,83,29.93,10.0,SSW,19.6,27.6,N/A,,Overcast,200,2013-11-01 02:55:00
11:15 PM,64.4,59.0,83,29.92,10.0,SSW,19.6,28.8,N/A,,Overcast,210,2013-11-01 03:15:00
11:35 PM,64.4,59.0,83,29.91,9.0,SSW,18.4,31.1,N/A,,Overcast,210,2013-11-01 03:35:00
11:55 PM,64.4,59.0,83,29.89,10.0,SSW,21.9,27.6,N/A,,Overcast,210,2013-11-01 03:55:00